Stations météo

réclame
Mon MeteoGroup
Greifswald, Allemagne (10184): Température de l'air & dewpoint: 19.02.2018 10:00:00 - 25.02.2018 10:00:00 (CET)Greifswald, Allemagne (10184): Température de l'air 5cm & Température de l'air -5cm: 19.02.2018 10:00:00 - 25.02.2018 10:00:00 (CET)Greifswald, Allemagne (10184): Température de l'air -20cm & Température de l'air -100cm: 19.02.2018 10:00:00 - 25.02.2018 10:00:00 (CET)Greifswald, Allemagne (10184): Vitesse du vent & gusts: 19.02.2018 10:00:00 - 25.02.2018 10:00:00 (CET)Greifswald, Allemagne (10184): Direction du vent: 19.02.2018 10:00:00 - 25.02.2018 10:00:00 (CET)Greifswald, Allemagne (10184): reduced air pressure: 19.02.2018 10:00:00 - 25.02.2018 10:00:00 (CET)Greifswald, Allemagne (10184): visibility: 19.02.2018 10:00:00 - 25.02.2018 10:00:00 (CET)Greifswald, Allemagne (10184): Ensoleillement: 19.02.2018 10:00:00 - 25.02.2018 10:00:00 (CET)Greifswald, Allemagne (10184): Quantités de précipitations: 19.02.2018 10:00:00 - 25.02.2018 10:00:00 (CET)
Date & Time tt [°C] td [°C] tt 5cm [°C] tt -5cm [°C] tt -20cm [°C] tt -100cm [°C] ff [km/h] ff [knt] fx [km/h] fx [knt] dd ppp [hPa] vv [km] sd [min] rr [mm]
25.02.2018 10:00:00 -2,6 -4,8 -2,5 -0,2 0,5 3,2 18 10 34 18 N 1033,2 8 0 0,4
25.02.2018 09:00:00 -3,0 -5,1 -2,7 -0,3 0,5 3,2 22 12 32 18 NE 1033,6 0,8 0 0,5
25.02.2018 08:00:00 -5,0 -6,0 -4,8 -0,4 0,5 3,2 6 4 16 9 W 1033,7 0,9 0 0,2
25.02.2018 07:00:00 -5,4 -6,8 -6,3 -0,4 0,5 3,2 8 4 16 8 WSW 1033,8 10 0 0,0
25.02.2018 06:00:00 -5,1 -6,9 -5,5 -0,4 0,5 3,2 10 5 17 9 W 1034,0 8 0 0,0
25.02.2018 05:00:00 -5,3 -6,8 -5,6 -0,5 0,5 3,2 7 4 10 6 W 1034,3 20 0 0,0
25.02.2018 04:00:00 -5,2 -7,3 -6,6 -0,5 0,5 3,2 2 1 10 5 W 1034,5 35 0 0,0
25.02.2018 03:00:00 -4,7 -7,5 -5,8 -0,4 0,5 3,2 7 4 10 5 WSW 1034,5 17 0 0,0
25.02.2018 02:00:00 -4,8 -7,6 -6,1 -0,4 0,5 3,2 3 1 8 4 W 1035,1 10 0 0,0
25.02.2018 01:00:00 -4,8 -7,1 -5,4 -0,4 0,5 3,2 4 2 13 7 W 1035,1 25 0 0,0
25.02.2018 00:00:00 -4,5 -6,7 -4,7 -0,5 0,5 3,2 6 3 12 6 S 1035,1 2,5 0 0,0
24.02.2018 23:00:00 -4,1 -7,3 -5,6 -0,5 0,5 3,2 9 5 16 9 SE 1034,9 55 0 0,0
24.02.2018 22:00:00 -3,7 -7,8 -5,9 -0,4 0,5 3,2 11 6 25 13 E 1034,7 70 0 0,0
24.02.2018 21:00:00 -3,1 -7,1 -5,2 -0,4 0,6 3,2 16 8 27 15 E 1034,6 70 0 0,0
24.02.2018 20:00:00 -3,0 -6,5 -4,9 -0,3 0,6 3,3 16 9 42 23 E 1034,6 65 0 0,1
24.02.2018 19:00:00 -2,5 -5,6 -2,8 -0,2 0,6 3,3 28 15 39 21 ENE 1034,7 10 0 0,0
24.02.2018 18:00:00 -1,8 -9,0 -2,5 -0,1 0,6 3,3 23 13 35 19 ENE 1034,3 70 0 0,0
24.02.2018 17:00:00 -1,6 -9,2 -1,8 -0,1 0,6 3,3 26 14 37 20 ENE 1034,2 70 6 0,0
24.02.2018 16:00:00 -1,4 -9,2 -1,6 -0,1 0,6 3,3 22 12 41 22 E 1033,9 70 7 0,0
24.02.2018 15:00:00 -0,9 -8,6 -0,3 -0,1 0,6 3,3 24 13 45 24 ENE 1033,7 65 1 0,0
24.02.2018 14:00:00 -0,4 -7,0 1,4 -0,1 0,6 3,3 22 12 45 25 ENE 1033,6 45 39 0,0
24.02.2018 13:00:00 -0,5 -7,8 2,0 -0,1 0,6 3,3 32 17 46 25 ENE 1033,6 30 31 0,0
24.02.2018 12:00:00 -1,2 -6,2 -0,9 -0,1 0,6 3,3 35 19 52 28 NE 1033,5 60 43 0,0
24.02.2018 11:00:00 0,1 -8,9 1,5 -0,2 0,6 3,3 36 20 53 29 ENE 1033,4 70 40 0,0
24.02.2018 10:00:00 -0,3 -6,6 1,0 -0,3 0,6 3,3 34 18 59 32 ENE 1032,9 35 23 0,0
24.02.2018 09:00:00 -1,2 -7,1 -1,9 -0,4 0,6 3,3 27 14 54 29 ENE 1032,5 65 22 0,0
24.02.2018 08:00:00 -0,9 -7,6 -1,5 -0,4 0,6 3,3 34 19 47 26 ENE 1032,1 55 0 0,0
24.02.2018 07:00:00 -1,0 -8,0 -1,8 -0,4 0,6 3,3 27 15 48 26 NE 1031,8 70 0 0,0
24.02.2018 06:00:00 -0,8 -8,4 -1,7 -0,4 0,6 3,3 29 16 49 27 ENE 1031,4 70 0 0,0
24.02.2018 05:00:00 -0,4 -5,9 -1,0 -0,2 0,6 3,3 32 17 50 27 ENE 1030,7 67 0 0,0
24.02.2018 04:00:00 -0,1 -3,6 -0,6 -0,2 0,6 3,3 30 16 47 25 ENE 1029,9 45 0 0,0
24.02.2018 03:00:00 0,2 -4,2 -0,6 -0,1 0,6 3,3 27 15 38 20 NE 1029,7 54 0 0,0
24.02.2018 02:00:00 0,1 -1,8 -0,5 -0,1 0,6 3,3 16 9 29 16 NE 1029,5 18 0 0,1
24.02.2018 01:00:00 -0,2 -1,9 -0,7 -0,1 0,6 3,3 19 10 31 17 NE 1029,3 11 0 0,0
24.02.2018 00:00:00 -0,1 -2,6 -0,5 -0,2 0,7 3,3 22 12 34 19 NE 1029,0 40 0 0,0
23.02.2018 23:00:00 -1,1 -4,4 -1,5 -0,1 0,7 3,3 5 3 9 5 WNW 1028,9 21 0 0,0
23.02.2018 22:00:00 -1,2 -4,7 -1,6 -0,2 0,7 3,3 5 3 8 4 NW 1029,0 51 0 0,0
23.02.2018 21:00:00 -1,3 -4,7 -2,0 -0,2 0,7 3,3 7 4 24 13 NNE 1028,8 66 0 0,0
23.02.2018 20:00:00 -4,0 -6,0 -5,6 -0,3 0,7 3,3 6 4 9 5 NNW 1028,9 16 0 0,0
23.02.2018 19:00:00 -3,9 -6,3 -5,6 -0,2 0,7 3,3 2 1 8 4 N 1028,8 40 0 0,0
23.02.2018 18:00:00 -2,9 -5,9 -5,1 -0,1 0,7 3,3 4 2 11 6 ENE 1028,6 38 0 0,0
23.02.2018 17:00:00 -1,5 -6,0 -2,9 -0,1 0,7 3,3 9 5 19 11 NE 1028,6 35 48 0,0
23.02.2018 16:00:00 -0,9 -6,4 0,4 -0,1 0,7 3,3 14 8 19 11 NE 1028,7 36 60 0,0
23.02.2018 15:00:00 -1,1 -6,3 0,7 -0,1 0,7 3,3 13 7 21 12 NE 1028,8 30 60 0,0
23.02.2018 14:00:00 -0,8 -7,1 1,6 -0,1 0,7 3,3 15 8 22 12 ENE 1029,2 26 59 0,0
23.02.2018 13:00:00 -1,1 -7,1 2,1 -0,1 0,7 3,3 10 6 18 10 E 1029,3 22 60 0,0
23.02.2018 12:00:00 -2,0 -8,2 0,7 -0,2 0,7 3,3 10 5 21 12 E 1029,7 20 60 0,0
23.02.2018 11:00:00 -2,7 -9,2 -0,6 -0,3 0,7 3,3 15 8 24 13 E 1029,8 22 60 0,0
23.02.2018 10:00:00 -3,0 -8,6 -1,5 -0,4 0,8 3,3 14 8 25 13 E 1029,5 18 60 0,0
23.02.2018 09:00:00 -3,7 -8,3 -2,9 -0,5 0,8 3,3 16 9 22 12 E 1029,2 15 60 0,0
23.02.2018 08:00:00 -4,7 -8,5 -5,9 -0,5 0,8 3,3 14 7 22 12 E 1028,8 15 3 0,0
23.02.2018 07:00:00 -4,4 -8,5 -5,7 -0,3 0,9 3,3 14 8 24 13 ESE 1028,3 15 0 0,0
23.02.2018 06:00:00 -3,5 -8,4 -4,8 -0,1 0,9 3,3 19 10 27 14 E 1028,0 15 0 0,0
23.02.2018 05:00:00 -2,6 -7,9 -3,0 0,0 1,0 3,3 18 10 25 13 ENE 1027,8 16 0 0,0
23.02.2018 04:00:00 -2,2 -7,3 -2,5 0,0 1,0 3,3 21 12 30 16 ENE 1027,6 16 0 0,0
23.02.2018 03:00:00 -2,0 -7,1 -2,4 0,0 1,1 3,3 22 12 33 18 ENE 1027,9 19 0 0,0
23.02.2018 02:00:00 -1,9 -7,9 -2,5 0,0 1,1 3,3 22 12 33 18 ENE 1027,9 31 0 0,0
23.02.2018 01:00:00 -1,7 -7,5 -2,6 0,0 1,2 3,3 23 12 35 19 ENE 1028,1 42 0 0,0
23.02.2018 00:00:00 -1,5 -6,4 -2,6 0,1 1,3 3,3 19 11 32 17 ENE 1028,2 40 0 0,0
22.02.2018 23:00:00 -1,7 -5,8 -3,5 0,1 1,5 3,3 16 9 29 15 E 1028,3 30 0 0,0
22.02.2018 22:00:00 -1,1 -5,5 -2,6 0,2 1,6 3,3 17 9 29 16 ENE 1028,0 31 0 0,0
22.02.2018 21:00:00 -1,2 -4,6 -3,0 0,3 1,8 3,3 9 5 16 9 E 1027,7 28 0 0,0
22.02.2018 20:00:00 -0,5 -3,9 -1,5 0,4 2,1 3,3 13 7 22 12 E 1027,7 28 0 0,0
22.02.2018 19:00:00 -0,1 -2,9 -0,8 0,9 2,4 3,3 18 10 26 14 E 1027,2 16 0 0,0
22.02.2018 18:00:00 0,1 -2,7 -0,4 1,6 2,6 3,3 18 10 27 15 E 1027,0 12 0 0,0
22.02.2018 17:00:00 0,3 -2,4 -0,8 2,6 2,7 3,3 14 7 22 12 E 1026,7 15 0 0,0
22.02.2018 16:00:00 1,4 -1,9 1,7 4,3 2,4 3,3 17 9 24 13 E 1026,6 25 0 0,0
22.02.2018 15:00:00 1,8 -1,6 2,8 5,4 1,7 3,3 14 8 23 12 NE 1026,5 50 30 0,0
22.02.2018 14:00:00 2,7 -2,0 7,2 3,4 1,0 3,3 13 7 19 11 NE 1026,8 50 60 0,0
22.02.2018 13:00:00 2,6 -2,3 5,3 0,1 0,7 3,3 11 6 19 10 NNE 1027,1 32 33 0,0
22.02.2018 12:00:00 1,9 -1,7 2,3 0,0 0,7 3,3 13 7 20 11 NNE 1027,3 36 36 0,0
22.02.2018 11:00:00 2,2 -1,2 3,5 0,0 0,7 3,3 14 7 19 10 NNE 1027,3 32 56 0,0
22.02.2018 10:00:00 1,7 -0,7 3,0 0,0 0,7 3,3 8 5 12 7 NNE 1027,2 22 23 0,0
22.02.2018 09:00:00 -0,1 -0,8 -0,6 0,0 0,7 3,3 4 2 7 4 WNW 1027,1 3,5 0 0,0
22.02.2018 08:00:00 -0,7 -1,4 -1,0 0,0 0,7 3,3 5 3 8 5 W 1027,1 3,0 0 0,0
22.02.2018 07:00:00 -0,6 -1,6 -1,2 0,0 0,7 3,3 6 3 10 5 W 1026,9 4,0 0 0,0
22.02.2018 06:00:00 -0,6 -2,0 -1,3 0,0 0,7 3,3 6 4 10 5 W 1026,9 6 0 0,0
22.02.2018 05:00:00 -0,7 -2,0 -1,5 0,0 0,7 3,3 3 2 8 4 SW 1026,9 6 0 0,0
22.02.2018 04:00:00 -0,8 -2,1 -1,5 0,0 0,8 3,3 5 3 8 4 WSW 1027,1 10 0 0,0
22.02.2018 03:00:00 -1,0 -2,1 -1,6 0,0 0,8 3,3 5 3 8 4 SW 1027,3 14 0 0,0
22.02.2018 02:00:00 -1,7 -2,3 -2,3 0,0 0,8 3,3 5 3 10 6 WSW 1027,5 11 0 0,0
22.02.2018 01:00:00 -1,9 -2,5 -2,4 0,0 0,8 3,3 3 2 6 3 S 1027,7 11 0 0,0
22.02.2018 00:00:00 -3,4 -4,0 -5,2 0,0 0,9 3,3 3 2 5 3 SW 1027,9 12 0 0,0
21.02.2018 23:00:00 -3,1 -3,7 -4,5 0,0 0,9 3,3 3 2 4 2 SW 1027,8 14 0 0,0
21.02.2018 22:00:00 -3,1 -3,7 -4,5 0,0 1,0 3,3 3 2 4 2 WSW 1027,9 10 0 0,0
21.02.2018 21:00:00 -3,0 -3,5 -4,7 0,1 1,1 3,3 2 1 5 3 WNW 1027,7 7 0 0,0
21.02.2018 20:00:00 -2,1 -2,8 -4,5 0,1 1,2 3,3 4 2 5 3 WNW 1027,5 10 0 0,0
21.02.2018 19:00:00 -2,0 -2,8 -4,7 0,2 1,3 3,3 3 1 6 3 NW 1027,2 16 0 0,0
21.02.2018 18:00:00 -1,4 -2,5 -3,2 0,3 1,4 3,3 4 2 6 3 NW 1027,0 21 0 0,0
21.02.2018 17:00:00 0,4 -1,8 -1,7 1,3 1,4 3,3 5 3 12 6 N 1026,8 22 0 0,0
21.02.2018 16:00:00 1,2 -1,4 1,3 2,1 1,2 3,3 5 3 16 9 N 1026,8 28 0 0,0
21.02.2018 15:00:00 1,1 -1,0 1,6 1,4 0,9 3,3 13 7 18 10 N 1027,0 16 0 0,0
21.02.2018 14:00:00 2,0 -1,2 2,6 0,1 0,8 3,3 9 5 16 8 N 1027,4 30 0 0,0
21.02.2018 13:00:00 1,2 -1,3 1,8 0,0 0,8 3,3 14 8 24 13 ENE 1027,5 22 11 0,0
21.02.2018 12:00:00 2,5 -2,9 3,7 0,0 0,8 3,3 10 6 15 8 N 1027,4 28 8 0,0
21.02.2018 11:00:00 2,1 -0,5 2,4 0,0 0,8 3,3 11 6 19 11 NNE 1027,3 15 36 0,0
21.02.2018 10:00:00 1,1 -1,3 2,2 0,0 0,8 3,3 5 3 8 5 NW 1027,2 18 42 0,0
21.02.2018 09:00:00 -1,0 -2,3 -1,1 0,0 0,8 3,3 4 2 6 3 SSW 1026,7 10 13 0,0
21.02.2018 08:00:00 -2,6 -3,1 -4,5 0,0 0,9 3,2 4 2 5 3 W 1026,7 12 0 0,0
21.02.2018 07:00:00 -2,5 -3,0 -4,4 0,0 0,9 3,2 4 2 6 3 NW 1026,6 12 0 0,0
21.02.2018 06:00:00 -2,4 -2,9 -5,1 0,0 0,9 3,2 2 1 8 4 NW 1026,4 12 0 0,0
21.02.2018 05:00:00 -1,6 -2,1 -4,8 0,0 1,0 3,2 4 2 6 3 NNW 1026,4 11 0 0,0
21.02.2018 04:00:00 -0,7 -1,7 -3,7 0,0 1,0 3,2 5 3 11 6 ENE 1026,0 19 0 0,0
21.02.2018 03:00:00 0,0 -1,2 -2,0 0,1 1,0 3,2 6 3 8 5 NE 1026,3 22 0 0,0
21.02.2018 02:00:00 -0,1 -1,7 -1,5 0,1 1,1 3,2 4 2 10 5 NE 1026,3 20 0 0,0
21.02.2018 01:00:00 -0,1 -1,6 -1,3 0,1 1,2 3,2 6 4 10 6 ENE 1026,2 15 0 0,0
21.02.2018 00:00:00 -0,4 -2,6 -1,5 0,1 1,2 3,2 3 1 6 3 NNE 1026,1 21 0 0,0
20.02.2018 23:00:00 -0,9 -3,0 -2,2 0,1 1,3 3,2 2 1 9 5 ENE 1025,6 18 0 0,0
20.02.2018 22:00:00 -1,0 -3,2 -5,1 0,1 1,5 3,2 7 4 17 9 E 1025,3 20 0 0,0
20.02.2018 21:00:00 -0,3 -3,1 -3,4 0,2 1,6 3,2 13 7 23 13 E 1024,9 16 0 0,0
20.02.2018 20:00:00 0,1 -2,7 -2,8 0,3 1,8 3,2 15 8 22 12 ENE 1024,8 14 0 0,0
20.02.2018 19:00:00 0,4 -2,9 -2,0 0,4 2,1 3,2 15 8 23 13 ENE 1024,2 14 0 0,0
20.02.2018 18:00:00 0,9 -2,7 -1,3 0,5 2,4 3,2 16 9 28 15 E 1023,7 14 0 0,0
20.02.2018 17:00:00 1,8 -4,5 0,1 1,9 2,5 3,2 16 9 27 15 ENE 1023,4 18 50 0,0
20.02.2018 16:00:00 2,5 -5,1 2,9 2,8 2,4 3,2 16 9 32 17 E 1023,1 22 40 0,0
20.02.2018 15:00:00 2,7 -4,4 3,1 4,1 1,9 3,2 21 11 31 17 E 1023,1 17 48 0,0
20.02.2018 14:00:00 3,4 -4,8 4,7 2,3 1,3 3,2 18 10 32 17 E 1022,9 15 60 0,0
20.02.2018 13:00:00 3,5 -5,5 5,4 0,5 0,9 3,2 24 13 32 17 E 1022,9 20 60 0,0
20.02.2018 12:00:00 3,5 -6,1 4,9 0,0 0,8 3,2 22 12 30 16 E 1023,0 25 60 0,0
20.02.2018 11:00:00 2,8 -4,1 3,5 0,0 0,8 3,2 17 9 24 13 E 1022,8 12 60 0,0
20.02.2018 10:00:00 1,5 -2,7 2,0 0,0 0,8 3,2 16 9 22 12 E 1022,8 9 30 0,0
20.02.2018 09:00:00 0,1 -2,4 -0,6 0,0 0,8 3,2 13 7 17 9 E 1022,7 8 0 0,0
20.02.2018 08:00:00 -1,6 -3,1 -4,6 0,0 0,9 3,2 8 5 13 7 E 1022,4 8 0 0,0
20.02.2018 07:00:00 -2,0 -3,4 -4,3 0,0 0,9 3,2 11 6 12 6 E 1022,1 8 0 0,0
20.02.2018 06:00:00 -1,2 -3,3 -3,6 0,0 0,9 3,2 9 5 16 9 ESE 1022,0 7 0 0,0
20.02.2018 05:00:00 -0,3 -2,8 -1,1 0,1 1,0 3,2 11 6 15 8 ESE 1021,9 6 0 0,0
20.02.2018 04:00:00 -0,8 -2,9 -2,4 0,1 1,0 3,2 8 5 12 7 ESE 1021,8 8 0 0,0
20.02.2018 03:00:00 -0,6 -2,9 -1,8 0,1 1,1 3,2 6 3 11 6 ESE 1021,8 8 0 0,0
20.02.2018 02:00:00 -0,4 -3,1 -2,0 0,1 1,2 3,2 6 3 9 5 ESE 1021,6 15 0 0,0
20.02.2018 01:00:00 -0,8 -2,6 -2,6 0,1 1,2 3,2 7 4 11 6 ESE 1021,5 10 0 0,0
20.02.2018 00:00:00 -0,8 -2,5 -2,3 0,1 1,4 3,2 9 5 11 6 ESE 1021,4 10 0 0,0
19.02.2018 23:00:00 -0,4 -2,7 -2,8 0,1 1,5 3,2 7 4 11 6 ESE 1021,1 10 0 0,0
19.02.2018 22:00:00 0,9 -2,8 -1,6 0,0 1,7 3,2 8 4 13 7 SE 1020,9 12 0 0,0
19.02.2018 21:00:00 -0,1 -2,2 -2,1 0,4 2,0 3,2 8 5 10 5 E 1021,0 15 0 0,0
19.02.2018 20:00:00 1,7 -2,0 -0,7 1,0 2,2 3,2 6 3 11 6 SE 1020,9 18 0 0,0
19.02.2018 19:00:00 2,0 -1,5 0,5 1,7 2,3 3,2 4 2 11 6 SE 1021,0 20 0 0,0
19.02.2018 18:00:00 2,6 -1,7 0,9 2,3 2,5 3,2 7 4 16 8 SE 1020,7 15 0 0,0
19.02.2018 17:00:00 3,8 -1,8 2,2 3,5 2,4 3,2 5 3 13 7 SSE 1020,6 24 0 0,0
19.02.2018 16:00:00 4,5 -2,0 4,1 4,4 2,1 3,2 8 4 13 7 S 1020,6 22 0 0,0
19.02.2018 15:00:00 4,3 -1,8 4,1 4,5 1,6 3,2 8 4 16 8 S 1020,6 20 0 0,0
19.02.2018 14:00:00 4,0 -1,8 4,3 3,9 1,1 3,2 7 4 17 9 S 1020,9 16 16 0,0
19.02.2018 13:00:00 3,6 -1,9 4,4 0,5 0,7 3,2 11 6 16 9 SSE 1021,2 18 27 0,0
19.02.2018 12:00:00 3,0 -2,5 3,5 0,0 0,7 3,2 11 6 23 12 S 1021,7 18 35 0,0
19.02.2018 11:00:00 2,4 -2,8 2,4 0,0 0,7 3,2 11 6 23 12 S 1021,8 18 60 0,0
19.02.2018 10:00:00 1,5 -3,1 1,7 0,0 0,7 3,2 10 5 23 13 S 1022,2 19 60 0,0

tt = Température de l'air
td = dewpoint
tt 5cm = Température de l'air 5cm
tt -5cm = Température de l'air -5cm
tt -20cm = Température de l'air -20cm
tt -100cm = Température de l'air -100cm
ff = Vitesse du vent
fx = gusts
dd = Direction du vent
ppp = reduced air pressure
vv = visibility
sd = Ensoleillement
rr = Quantités de précipitations

stations d'obs. à proximité